C/2017 T2 ( PanSTARRS )

Japanese version
Home page
Updated on January 23, 2020

---------------------------------------------------------------------

* Profile

Discovery Date October 2, 2017
Magnitude 19.9 mag
Discoverer Pan-STARRS 1 telescope (Haleakala)

* Pictures

* Orbital Elements

Epoch 2020 Apr. 21.0 TT = JDT 2458960.5
T 2020 May 4.95269 TT                                   Williams
q   1.6150921            (2000.0)            P               Q
z  +0.0002351      Peri.   92.99495     -0.50996222     -0.40634342
 +/-0.0000003      Node    64.37794     -0.16278825     -0.81987695
e   0.9996202      Incl.   57.23060     +0.84465290     -0.40334453
From 2862 observations 2017 Sept. 15-2020 Jan. 8, mean residual 0".4.

* Finding Charts

* Magnitudes Graph

        m1 = 5.0 + 5 log d + 9.5 log r

---------------------------------------------------------------------

The orbital elements are published on M.P.E.C. 2020-A105.
The charts are made with StellaNavigator Ver.10 (AstroArts).
The magnitudes graphs are made with Comet for Windows.

---------------------------------------------------------------------

Copyright(C) Seiichi Yoshida (comet@aerith.net). All rights reserved.